Location: Chassagnes
(44.4047°N, 4.1657°E)
Time: 12:50:13
(UTC+00:00)

Ariane Rocket - Pass Details

Date: 27 October 2020
Orbit: 759 x 770 km, 98.7° (Epoch: 23 November)

Event Time Altitude Azimuth Distance (km) Brightness Sun altitude
Exits shadow 19:07:50 27° 9° (N) 1,452 4.4 -27.1°
Drops below altitude 10° 19:10:16 10° 356° (N) 2,323 5.6 -27.5°
Sets 19:12:38 0° 351° (N) 3,253 6.5 -27.9°
